Back to catalog

FENGYUN 1C DEB

AlivePO
NORAD 29934·DEBRIS·🇨🇳 China

Launched May 10, 1999 from Taiyuan Satellite Launch Center

Loading…

Next Passes (next 24 hours)

TLE

FreshSource: Space-Track

Epoch: Sep 14, 2026, 11:06 UTC

1 29934U 99025JG  26257.46283110  .00003644  00000-0  63020-3 0  9990
2 29934  98.8722 331.3693 0099109 122.9969 238.0805 14.65881052 38062

Track FENGYUN 1C DEB in real time with AllMySat

Download on the App Store